Location: Buisson
(44.2787°N, 4.9969°E)
Time: 03:42:28
(UTC+00:00)

COSMOS 2406 - Pass Details

Date: 18 April 2021
Orbit: 845 x 862 km, 71.0° (Epoch: 15 May)

Event Time Altitude Azimuth Distance (km) Brightness Sun altitude
Rises 02:18:08 0° 330° (NNW) 3,417 6.6 -24.2°
Reaches altitude 10° 02:20:39 10° 325° (NW) 2,476 5.7 -23.9°
Enters shadow 02:26:02 51° 255° (WSW) 1,060 3.3 -23.2°
